Location: Newark
(7.0858°N, 171.3717°E)
Time: 08:11:10
(UTC+00:00)

S-56A Canister/Altair - Pass Details

Date: 02 December 2020
Orbit: 633 x 2499 km, 38.9° (Epoch: 27 January)

Event Time Altitude Azimuth Distance (km) Brightness Sun altitude
Rises 07:50:46 0° 286° (WNW) 5,905 12.9 -22.7°
Reaches altitude 10° 07:58:53 10° 314° (NW) 4,485 11.7 -24.6°
Maximum altitude 08:02:44 12° 333° (NNW) 4,078 11.3 -25.5°
Drops below altitude 10° 08:06:14 10° 352° (N) 3,973 11.0 -26.3°
Enters shadow 08:08:48 - 6° (N) 4,082 11.0 -26.9°
Sets 08:12:12 0° 23° (NNE) 4,463 - -27.7°
